Location: Équennes
(49.7375°N, 1.9622°E)
Time: 09:23:47
(UTC+00:00)

Cosmos 1656 - Pass Details

Date: 10 October 2023
Orbit: 797 x 849 km, 71.1° (Epoch: 10 December)

Event Time Altitude Azimuth Distance (km) Brightness Sun altitude
Rises 20:16:48 0° 333° (NNW) 3,321 7.6 -29.8°
Reaches altitude 10° 20:19:20 10° 340° (NNW) 2,392 6.6 -30.2°
Enters shadow 20:22:47 34° 8° (N) 1,324 4.8 -30.7°
